FRS132 WMPR-WMAU

Flight info

Callsign FRS132
Flight time 1h 36m
Altitude 2500
Route
Aircraft BE36

Departure

Time 2026-05-05 18:14
Airport LTS Pulau Redang Airport (WMPR)

Arrival

Time 2026-05-05 19:50
Airport Mersing Airport (WMAU)
Time Latitude Longitude Altitude Speed Heading
2026-05-05 18:03 5.76033 103.00278 34 ft 0 kts 123°
2026-05-05 18:04 5.76028 103.00305 30 ft 10 kts 72°
2026-05-05 18:04 5.76153 103.00368 30 ft 26 kts 22°
2026-05-05 18:04 5.76349 103.00440 26 ft 37 kts 18°
2026-05-05 18:04 5.76621 103.00535 22 ft 45 kts 20°
2026-05-05 18:05 5.76857 103.00621 24 ft 29 kts 16°
2026-05-05 18:05 5.77004 103.00669 23 ft 14 kts 13°
2026-05-05 18:05 5.77019 103.00655 23 ft 0 kts 234°
2026-05-05 18:05 5.77010 103.00656 23 ft 5 kts 155°
2026-05-05 18:06 5.76998 103.00656 23 ft 0 kts 192°
2026-05-05 18:06 5.76993 103.00653 23 ft 0 kts 206°
2026-05-05 18:06 5.76989 103.00645 23 ft 6 kts 264°
2026-05-05 18:07 5.76997 103.00641 22 ft 0 kts 58°
2026-05-05 18:13 5.77010 103.00658 23 ft 9 kts 55°
2026-05-05 18:13 5.76878 103.00636 23 ft 45 kts 200°
2026-05-05 18:13 5.76458 103.00463 115 ft 78 kts 202°
2026-05-05 18:13 5.75961 103.00225 522 ft 81 kts 200°
2026-05-05 18:14 5.75451 102.99995 943 ft 80 kts 197°
2026-05-05 18:14 5.74887 102.99836 1261 ft 93 kts 183°
2026-05-05 18:14 5.74158 102.99655 1383 ft 118 kts 199°
2026-05-05 18:14 5.73359 102.99360 1616 ft 130 kts 196°
2026-05-05 18:15 5.72461 102.99042 1840 ft 142 kts 197°
2026-05-05 18:15 5.71483 102.98792 2068 ft 146 kts 190°
2026-05-05 18:15 5.70510 102.98558 2282 ft 139 kts 191°
2026-05-05 18:15 5.69572 102.98334 2347 ft 143 kts 190°
2026-05-05 18:16 5.68580 102.98098 2352 ft 149 kts 191°
2026-05-05 18:16 5.67549 102.97852 2357 ft 153 kts 191°
2026-05-05 18:16 5.66507 102.97604 2361 ft 154 kts 191°
2026-05-05 18:16 5.65463 102.97355 2360 ft 156 kts 191°
2026-05-05 18:17 5.64402 102.97102 2358 ft 157 kts 191°
2026-05-05 18:17 5.63343 102.96850 2359 ft 157 kts 191°
2026-05-05 18:17 5.62275 102.96596 2359 ft 157 kts 191°
2026-05-05 18:17 5.61218 102.96344 2360 ft 157 kts 191°
2026-05-05 18:18 5.60153 102.96091 2356 ft 156 kts 191°
2026-05-05 18:18 5.59105 102.95841 2361 ft 156 kts 191°
2026-05-05 18:18 5.58052 102.95590 2359 ft 156 kts 191°
2026-05-05 18:18 5.56986 102.95337 2358 ft 156 kts 191°
2026-05-05 18:19 5.55937 102.95087 2356 ft 155 kts 191°
2026-05-05 18:19 5.54889 102.94838 2359 ft 156 kts 191°
2026-05-05 18:19 5.53831 102.94585 2371 ft 157 kts 190°
2026-05-05 18:19 5.52734 102.94326 2349 ft 164 kts 192°
2026-05-05 18:20 5.51633 102.94062 2361 ft 163 kts 192°
2026-05-05 18:20 5.50896 102.93886 2357 ft 162 kts 191°
2026-05-05 18:20 5.49419 102.93758 2348 ft 161 kts 167°
2026-05-05 18:20 5.48407 102.94186 2352 ft 158 kts 144°
2026-05-05 18:21 5.47546 102.94853 2355 ft 156 kts 142°
2026-05-05 18:21 5.46687 102.95507 2351 ft 155 kts 142°
2026-05-05 18:21 5.45833 102.96159 2348 ft 155 kts 142°
2026-05-05 18:21 5.44975 102.96816 2362 ft 155 kts 142°
2026-05-05 18:22 5.44121 102.97470 2357 ft 156 kts 142°
2026-05-05 18:22 5.43260 102.98129 2355 ft 156 kts 141°
2026-05-05 18:22 5.42390 102.98797 2357 ft 156 kts 141°
2026-05-05 18:22 5.41535 102.99451 2362 ft 155 kts 142°
2026-05-05 18:23 5.40674 103.00108 2369 ft 158 kts 141°
2026-05-05 18:23 5.39778 103.00797 2351 ft 163 kts 141°
2026-05-05 18:23 5.38880 103.01486 2350 ft 162 kts 142°
2026-05-05 18:23 5.37995 103.02159 2349 ft 159 kts 141°
2026-05-05 18:24 5.37131 103.02825 2348 ft 157 kts 142°
2026-05-05 18:24 5.36248 103.03498 2351 ft 158 kts 142°
2026-05-05 18:24 5.35674 103.03937 2351 ft 157 kts 142°
2026-05-05 18:24 5.34518 103.04823 2353 ft 157 kts 141°
2026-05-05 18:25 5.33654 103.05485 2350 ft 158 kts 142°
2026-05-05 18:25 5.33357 103.05712 2354 ft 158 kts 141°
2026-05-05 18:25 5.32190 103.06606 2348 ft 158 kts 142°
2026-05-05 18:25 5.31318 103.07273 2347 ft 158 kts 142°
2026-05-05 18:26 5.30446 103.07942 2356 ft 160 kts 142°
2026-05-05 18:26 5.29555 103.08620 2362 ft 161 kts 141°
2026-05-05 18:26 5.28681 103.09294 2350 ft 158 kts 142°
2026-05-05 18:26 5.27809 103.09961 2359 ft 159 kts 142°
2026-05-05 18:27 5.26923 103.10640 2355 ft 161 kts 142°
2026-05-05 18:27 5.26023 103.11326 2358 ft 160 kts 142°
2026-05-05 18:27 5.25141 103.12000 2353 ft 160 kts 142°
2026-05-05 18:27 5.24258 103.12677 2354 ft 161 kts 142°
2026-05-05 18:28 5.22420 103.13952 2348 ft 160 kts 156°
2026-05-05 18:28 5.21390 103.14366 2357 ft 159 kts 158°
2026-05-05 18:28 5.20365 103.14799 2351 ft 160 kts 156°
2026-05-05 18:29 5.19337 103.15232 2352 ft 158 kts 156°
2026-05-05 18:29 5.18318 103.15654 2364 ft 164 kts 156°
2026-05-05 18:29 5.17282 103.16093 2355 ft 161 kts 158°
2026-05-05 18:29 5.16245 103.16526 2348 ft 159 kts 156°
2026-05-05 18:30 5.15221 103.16959 2347 ft 161 kts 156°
2026-05-05 18:30 5.14190 103.17389 2349 ft 160 kts 156°
2026-05-05 18:30 5.13172 103.17816 2350 ft 157 kts 156°
2026-05-05 18:30 5.12173 103.18235 2352 ft 156 kts 156°
2026-05-05 18:31 5.11174 103.18653 2349 ft 156 kts 156°
2026-05-05 18:31 5.10162 103.19078 2350 ft 156 kts 156°
2026-05-05 18:31 5.09174 103.19491 2345 ft 156 kts 156°
2026-05-05 18:31 5.08140 103.19923 2353 ft 163 kts 157°
2026-05-05 18:32 5.07092 103.20363 2344 ft 161 kts 156°
2026-05-05 18:32 5.06073 103.20793 2343 ft 159 kts 156°
2026-05-05 18:32 5.05044 103.21222 2343 ft 158 kts 156°
2026-05-05 18:32 5.04034 103.21645 2343 ft 158 kts 156°
2026-05-05 18:33 5.03021 103.22070 2343 ft 157 kts 156°
2026-05-05 18:33 5.02003 103.22497 2340 ft 157 kts 156°
2026-05-05 18:33 5.01003 103.22916 2345 ft 157 kts 156°
2026-05-05 18:33 4.99995 103.23338 2343 ft 157 kts 156°
2026-05-05 18:34 4.98998 103.23756 2347 ft 157 kts 156°
2026-05-05 18:34 4.97992 103.24177 2347 ft 157 kts 156°
2026-05-05 18:34 4.96980 103.24601 2344 ft 156 kts 156°
2026-05-05 18:34 4.95980 103.25020 2344 ft 156 kts 156°
2026-05-05 18:35 4.94979 103.25439 2347 ft 156 kts 156°
2026-05-05 18:35 4.93970 103.25862 2345 ft 155 kts 156°
2026-05-05 18:35 4.92972 103.26281 2346 ft 156 kts 156°
2026-05-05 18:35 4.91974 103.26698 2346 ft 156 kts 156°
2026-05-05 18:36 4.90973 103.27117 2347 ft 156 kts 156°
2026-05-05 18:36 4.89973 103.27537 2344 ft 156 kts 156°
2026-05-05 18:36 4.88969 103.27957 2351 ft 157 kts 156°
2026-05-05 18:36 4.87962 103.28379 2347 ft 156 kts 156°
2026-05-05 18:37 4.86961 103.28798 2346 ft 156 kts 156°
2026-05-05 18:37 4.85955 103.29219 2348 ft 157 kts 157°
2026-05-05 18:37 4.84949 103.29638 2348 ft 156 kts 158°
2026-05-05 18:37 4.83937 103.30055 2354 ft 157 kts 157°
2026-05-05 18:38 4.82917 103.30484 2337 ft 163 kts 157°
2026-05-05 18:38 4.81881 103.30913 2352 ft 161 kts 157°
2026-05-05 18:38 4.80833 103.31351 2356 ft 163 kts 156°
2026-05-05 18:38 4.79796 103.31782 2352 ft 160 kts 157°
2026-05-05 18:39 4.78768 103.32213 2351 ft 160 kts 157°
2026-05-05 18:39 4.77744 103.32641 2354 ft 160 kts 158°
2026-05-05 18:39 4.76706 103.33071 2347 ft 162 kts 157°
2026-05-05 18:39 4.75664 103.33507 2342 ft 160 kts 157°
2026-05-05 18:40 4.74643 103.33933 2349 ft 159 kts 157°
2026-05-05 18:40 4.73620 103.34363 2357 ft 160 kts 156°
2026-05-05 18:40 4.72572 103.34799 2343 ft 166 kts 157°
2026-05-05 18:40 4.71529 103.35237 2343 ft 162 kts 156°
2026-05-05 18:41 4.70484 103.35674 2344 ft 161 kts 157°
2026-05-05 18:41 4.69446 103.36122 2276 ft 167 kts 156°
2026-05-05 18:41 4.68361 103.36577 2203 ft 168 kts 156°
2026-05-05 18:41 4.67290 103.37032 2131 ft 167 kts 156°
2026-05-05 18:42 4.66221 103.37481 2055 ft 166 kts 156°
2026-05-05 18:42 4.65146 103.37932 1993 ft 170 kts 156°
2026-05-05 18:42 4.64062 103.38387 1909 ft 168 kts 157°
2026-05-05 18:42 4.63028 103.38924 1835 ft 167 kts 146°
2026-05-05 18:43 4.62059 103.39561 1766 ft 164 kts 148°
2026-05-05 18:43 4.61072 103.40082 1689 ft 158 kts 154°
2026-05-05 18:43 4.60064 103.40487 1612 ft 155 kts 159°
2026-05-05 18:43 4.59045 103.40819 1533 ft 153 kts 162°
2026-05-05 18:44 4.58097 103.41155 1362 ft 134 kts 154°
2026-05-05 18:44 4.57382 103.41516 1375 ft 96 kts 154°
2026-05-05 18:44 4.56791 103.41742 1135 ft 89 kts 162°
2026-05-05 18:44 4.56193 103.41903 864 ft 89 kts 171°
2026-05-05 18:45 4.55611 103.42083 583 ft 88 kts 174°
2026-05-05 18:45 4.55033 103.42258 346 ft 83 kts 170°
2026-05-05 18:45 4.54508 103.42420 161 ft 76 kts 171°
2026-05-05 18:45 4.54019 103.42576 33 ft 67 kts 160°
2026-05-05 18:46 4.53787 103.42670 33 ft 14 kts 120°
2026-05-05 18:46 4.53809 103.42767 32 ft 12 kts 72°
2026-05-05 18:46 4.53833 103.42844 32 ft 11 kts 61°
2026-05-05 18:46 4.53900 103.42837 32 ft 13 kts 342°
2026-05-05 18:47 4.53982 103.42811 32 ft 12 kts 339°
2026-05-05 18:47 4.54042 103.42765 32 ft 5 kts 301°
2026-05-05 18:47 4.54046 103.42758 32 ft 0 kts 290°
2026-05-05 18:49 4.54050 103.42749 32 ft 8 kts 303°
2026-05-05 18:49 4.54093 103.42659 32 ft 24 kts 256°
2026-05-05 18:50 4.53983 103.42590 33 ft 35 kts 167°
2026-05-05 18:50 4.53548 103.42725 56 ft 90 kts 162°
2026-05-05 18:50 4.52893 103.42951 320 ft 111 kts 162°
2026-05-05 18:50 4.52005 103.42854 355 ft 146 kts 201°
2026-05-05 18:51 4.51050 103.42536 686 ft 147 kts 200°
2026-05-05 18:51 4.50180 103.42122 1246 ft 127 kts 201°
2026-05-05 18:51 4.49383 103.41635 1476 ft 147 kts 224°
2026-05-05 18:51 4.48617 103.40947 1766 ft 152 kts 202°
2026-05-05 18:52 4.47566 103.40813 2119 ft 153 kts 185°
2026-05-05 18:52 4.46497 103.40586 2350 ft 165 kts 193°
2026-05-05 18:52 4.45334 103.40271 2356 ft 181 kts 195°
2026-05-05 18:52 4.44088 103.39915 2355 ft 191 kts 195°
2026-05-05 18:53 4.42803 103.39550 2353 ft 192 kts 195°
2026-05-05 18:53 4.41536 103.39190 2347 ft 181 kts 195°
2026-05-05 18:53 4.40390 103.38866 2343 ft 163 kts 195°
2026-05-05 18:53 4.39339 103.38568 2343 ft 153 kts 194°
2026-05-05 18:54 4.38331 103.38283 2361 ft 149 kts 193°
2026-05-05 18:54 4.37334 103.38002 2349 ft 148 kts 194°
2026-05-05 18:54 4.36333 103.37718 2350 ft 149 kts 195°
2026-05-05 18:54 4.35338 103.37436 2348 ft 149 kts 194°
2026-05-05 18:55 4.34344 103.37157 2346 ft 150 kts 194°
2026-05-05 18:55 4.33340 103.36873 2344 ft 151 kts 194°
2026-05-05 18:55 4.32309 103.36581 2366 ft 158 kts 194°
2026-05-05 18:55 4.31215 103.36271 2341 ft 162 kts 194°
2026-05-05 18:56 4.30145 103.35971 2355 ft 163 kts 194°
2026-05-05 18:56 4.29068 103.35666 2347 ft 160 kts 195°
2026-05-05 18:56 4.27996 103.35361 2342 ft 157 kts 194°
2026-05-05 18:56 4.26959 103.35068 2345 ft 156 kts 194°
2026-05-05 18:57 4.25915 103.34773 2338 ft 155 kts 194°
2026-05-05 18:57 4.24875 103.34479 2346 ft 154 kts 194°
2026-05-05 18:57 4.23848 103.34189 2343 ft 154 kts 194°
2026-05-05 18:57 4.22820 103.33898 2355 ft 154 kts 195°
2026-05-05 18:58 4.21751 103.33596 2358 ft 162 kts 194°
2026-05-05 18:58 4.20671 103.33293 2359 ft 164 kts 194°
2026-05-05 18:58 4.19582 103.32983 2350 ft 159 kts 194°
2026-05-05 18:58 4.18526 103.32684 2347 ft 158 kts 194°
2026-05-05 18:59 4.17474 103.32387 2345 ft 156 kts 194°
2026-05-05 18:59 4.16414 103.32088 2347 ft 157 kts 194°
2026-05-05 18:59 4.15367 103.31792 2350 ft 157 kts 194°
2026-05-05 18:59 4.14312 103.31493 2356 ft 157 kts 193°
2026-05-05 19:00 4.13615 103.31297 2350 ft 157 kts 194°
2026-05-05 19:00 4.12220 103.30902 2351 ft 155 kts 194°
2026-05-05 19:00 4.11179 103.30607 2349 ft 155 kts 195°
2026-05-05 19:00 4.10498 103.30415 2350 ft 154 kts 194°
2026-05-05 19:01 4.09126 103.30028 2348 ft 154 kts 194°
2026-05-05 19:01 4.08097 103.29738 2346 ft 154 kts 194°
2026-05-05 19:01 4.07064 103.29445 2346 ft 155 kts 194°
2026-05-05 19:01 4.06372 103.29250 2347 ft 155 kts 194°
2026-05-05 19:02 4.05341 103.28958 2352 ft 154 kts 194°
2026-05-05 19:02 4.04296 103.28662 2354 ft 156 kts 194°
2026-05-05 19:02 4.03252 103.28370 2351 ft 155 kts 194°
2026-05-05 19:02 4.02219 103.28077 2355 ft 155 kts 194°
2026-05-05 19:03 4.01185 103.27783 2376 ft 156 kts 194°
2026-05-05 19:03 4.00107 103.27482 2348 ft 158 kts 195°
2026-05-05 19:03 3.99054 103.27182 2350 ft 157 kts 194°
2026-05-05 19:03 3.98014 103.26887 2368 ft 157 kts 195°
2026-05-05 19:04 3.96955 103.26589 2350 ft 157 kts 194°
2026-05-05 19:04 3.95907 103.26294 2346 ft 155 kts 194°
2026-05-05 19:04 3.94859 103.25996 2368 ft 157 kts 194°
2026-05-05 19:04 3.93809 103.25701 2348 ft 156 kts 194°
2026-05-05 19:05 3.92766 103.25406 2349 ft 155 kts 194°
2026-05-05 19:05 3.91727 103.25113 2346 ft 159 kts 194°
2026-05-05 19:05 3.90653 103.24806 2346 ft 160 kts 194°
2026-05-05 19:05 3.89586 103.24511 2356 ft 159 kts 194°
2026-05-05 19:06 3.88510 103.24203 2359 ft 158 kts 195°
2026-05-05 19:06 3.87441 103.23906 2365 ft 164 kts 193°
2026-05-05 19:06 3.86358 103.23597 2348 ft 160 kts 195°
2026-05-05 19:06 3.85279 103.23290 2345 ft 158 kts 194°
2026-05-05 19:07 3.84236 103.22996 2353 ft 156 kts 195°
2026-05-05 19:07 3.83193 103.22702 2349 ft 155 kts 194°
2026-05-05 19:07 3.82285 103.22260 2105 ft 143 kts 221°
2026-05-05 19:07 3.81648 103.21712 2332 ft 100 kts 216°
2026-05-05 19:08 3.81118 103.21232 2041 ft 99 kts 215°
2026-05-05 19:08 3.80358 103.20994 1675 ft 135 kts 182°
2026-05-05 19:08 3.79276 103.20989 628 ft 176 kts 180°
2026-05-05 19:08 3.78010 103.20919 96 ft 177 kts 184°
2026-05-05 19:09 3.76783 103.20852 90 ft 177 kts 181°
2026-05-05 19:09 3.75601 103.20864 456 ft 154 kts 169°
2026-05-05 19:09 3.74670 103.21182 982 ft 138 kts 155°
2026-05-05 19:09 3.73777 103.21626 1256 ft 147 kts 154°
2026-05-05 19:10 3.72865 103.22004 1754 ft 142 kts 159°
2026-05-05 19:10 3.71861 103.22323 1869 ft 161 kts 162°
2026-05-05 19:10 3.70748 103.22642 1964 ft 171 kts 163°
2026-05-05 19:10 3.69572 103.22962 2076 ft 175 kts 163°
2026-05-05 19:11 3.68399 103.23280 2196 ft 177 kts 163°
2026-05-05 19:11 3.67195 103.23607 2311 ft 181 kts 163°
2026-05-05 19:11 3.65954 103.23944 2327 ft 187 kts 163°
2026-05-05 19:11 3.64761 103.24268 2321 ft 170 kts 163°
2026-05-05 19:12 3.63666 103.24565 2323 ft 159 kts 163°
2026-05-05 19:12 3.62618 103.24850 2326 ft 151 kts 163°
2026-05-05 19:12 3.61621 103.25122 2334 ft 147 kts 163°
2026-05-05 19:12 3.60615 103.25394 2321 ft 149 kts 163°
2026-05-05 19:13 3.59627 103.25666 2335 ft 147 kts 163°
2026-05-05 19:13 3.58639 103.25934 2330 ft 150 kts 163°
2026-05-05 19:13 3.57616 103.26211 2335 ft 151 kts 163°
2026-05-05 19:13 3.56615 103.26483 2330 ft 149 kts 163°
2026-05-05 19:14 3.55613 103.26756 2329 ft 147 kts 163°
2026-05-05 19:14 3.54626 103.27024 2340 ft 148 kts 163°
2026-05-05 19:14 3.53626 103.27296 2332 ft 149 kts 163°
2026-05-05 19:14 3.52635 103.27566 2334 ft 147 kts 163°
2026-05-05 19:15 3.51638 103.27838 2336 ft 151 kts 163°
2026-05-05 19:15 3.50629 103.28111 2331 ft 149 kts 163°
2026-05-05 19:15 3.49636 103.28380 2332 ft 147 kts 163°
2026-05-05 19:15 3.48652 103.28648 2337 ft 147 kts 163°
2026-05-05 19:16 3.47657 103.28919 2331 ft 147 kts 163°
2026-05-05 19:16 3.46676 103.29186 2332 ft 146 kts 163°
2026-05-05 19:16 3.45695 103.29452 2330 ft 146 kts 163°
2026-05-05 19:16 3.44711 103.29720 2329 ft 145 kts 163°
2026-05-05 19:17 3.43739 103.29985 2333 ft 145 kts 163°
2026-05-05 19:17 3.42773 103.30247 2334 ft 145 kts 163°
2026-05-05 19:17 3.41791 103.30513 2332 ft 145 kts 163°
2026-05-05 19:17 3.40825 103.30776 2331 ft 145 kts 163°
2026-05-05 19:18 3.39857 103.31040 2333 ft 145 kts 163°
2026-05-05 19:18 3.38888 103.31303 2329 ft 145 kts 163°
2026-05-05 19:18 3.37906 103.31570 2333 ft 144 kts 163°
2026-05-05 19:18 3.36940 103.31832 2330 ft 145 kts 163°
2026-05-05 19:19 3.35975 103.32095 2332 ft 145 kts 163°
2026-05-05 19:19 3.35005 103.32358 2335 ft 145 kts 163°
2026-05-05 19:19 3.34026 103.32624 2328 ft 145 kts 163°
2026-05-05 19:19 3.33058 103.32887 2328 ft 145 kts 163°
2026-05-05 19:20 3.32088 103.33150 2329 ft 145 kts 163°
2026-05-05 19:20 3.31117 103.33415 2331 ft 145 kts 163°
2026-05-05 19:20 3.30138 103.33681 2333 ft 145 kts 163°
2026-05-05 19:20 3.29163 103.33945 2331 ft 145 kts 163°
2026-05-05 19:21 3.28195 103.34209 2332 ft 145 kts 163°
2026-05-05 19:21 3.27213 103.34474 2323 ft 149 kts 163°
2026-05-05 19:21 3.26207 103.34748 2338 ft 151 kts 163°
2026-05-05 19:21 3.25195 103.35024 2332 ft 152 kts 163°
2026-05-05 19:22 3.24161 103.35305 2347 ft 154 kts 163°
2026-05-05 19:22 3.23135 103.35584 2335 ft 151 kts 163°
2026-05-05 19:22 3.22122 103.35859 2332 ft 151 kts 163°
2026-05-05 19:22 3.21121 103.36132 2329 ft 149 kts 163°
2026-05-05 19:23 3.20124 103.36401 2331 ft 147 kts 163°
2026-05-05 19:23 3.19134 103.36670 2331 ft 146 kts 163°
2026-05-05 19:23 3.18158 103.36936 2331 ft 145 kts 163°
2026-05-05 19:23 3.17171 103.37205 2334 ft 145 kts 163°
2026-05-05 19:24 3.16199 103.37469 2330 ft 145 kts 163°
2026-05-05 19:24 3.15222 103.37735 2336 ft 146 kts 163°
2026-05-05 19:24 3.14239 103.38002 2326 ft 146 kts 163°
2026-05-05 19:24 3.13266 103.38266 2331 ft 146 kts 163°
2026-05-05 19:25 3.12286 103.38533 2332 ft 145 kts 163°
2026-05-05 19:25 3.11318 103.38796 2328 ft 145 kts 163°
2026-05-05 19:25 3.10338 103.39062 2325 ft 145 kts 163°
2026-05-05 19:25 3.09355 103.39330 2333 ft 147 kts 163°
2026-05-05 19:26 3.08368 103.39597 2328 ft 147 kts 163°
2026-05-05 19:26 3.07375 103.39867 2333 ft 146 kts 164°
2026-05-05 19:26 3.06403 103.40131 2335 ft 146 kts 163°
2026-05-05 19:26 3.05418 103.40399 2333 ft 146 kts 163°
2026-05-05 19:27 3.04435 103.40667 2330 ft 147 kts 164°
2026-05-05 19:27 3.03456 103.40931 2334 ft 146 kts 163°
2026-05-05 19:27 3.02466 103.41200 2330 ft 146 kts 163°
2026-05-05 19:27 3.01488 103.41466 2330 ft 146 kts 164°
2026-05-05 19:28 3.00509 103.41732 2330 ft 146 kts 164°
2026-05-05 19:28 2.99513 103.42003 2337 ft 150 kts 163°
2026-05-05 19:28 2.98510 103.42275 2333 ft 151 kts 163°
2026-05-05 19:28 2.97511 103.42546 2334 ft 149 kts 163°
2026-05-05 19:29 2.96514 103.42816 2335 ft 149 kts 163°
2026-05-05 19:29 2.95512 103.43089 2332 ft 148 kts 163°
2026-05-05 19:29 2.94519 103.43358 2336 ft 148 kts 163°
2026-05-05 19:29 2.93535 103.43627 2332 ft 147 kts 163°
2026-05-05 19:30 2.92554 103.43893 2331 ft 146 kts 163°
2026-05-05 19:30 2.91577 103.44158 2326 ft 146 kts 163°
2026-05-05 19:30 2.90600 103.44423 2332 ft 145 kts 163°
2026-05-05 19:30 2.89617 103.44690 2327 ft 145 kts 163°
2026-05-05 19:31 2.88653 103.44952 2324 ft 145 kts 163°
2026-05-05 19:31 2.87676 103.45217 2329 ft 145 kts 163°
2026-05-05 19:31 2.86703 103.45482 2330 ft 145 kts 163°
2026-05-05 19:31 2.85723 103.45748 2330 ft 145 kts 163°
2026-05-05 19:32 2.84746 103.46013 2331 ft 147 kts 163°
2026-05-05 19:32 2.83834 103.46468 2336 ft 149 kts 137°
2026-05-05 19:32 2.83091 103.47180 2335 ft 147 kts 136°
2026-05-05 19:32 2.82352 103.47875 2338 ft 148 kts 135°
2026-05-05 19:33 2.81598 103.48587 2331 ft 148 kts 136°
2026-05-05 19:33 2.80854 103.49288 2337 ft 147 kts 136°
2026-05-05 19:33 2.80096 103.50004 2324 ft 150 kts 136°
2026-05-05 19:33 2.79340 103.50715 2328 ft 148 kts 136°
2026-05-05 19:34 2.78594 103.51420 2327 ft 147 kts 136°
2026-05-05 19:34 2.77848 103.52123 2328 ft 146 kts 136°
2026-05-05 19:34 2.77118 103.52811 2322 ft 145 kts 136°
2026-05-05 19:35 2.75649 103.54197 2325 ft 144 kts 136°
2026-05-05 19:35 2.74913 103.54892 2329 ft 144 kts 136°
2026-05-05 19:35 2.74183 103.55581 2329 ft 145 kts 136°
2026-05-05 19:35 2.73458 103.56263 2329 ft 144 kts 136°
2026-05-05 19:36 2.72729 103.56953 2331 ft 145 kts 136°
2026-05-05 19:36 2.71986 103.57653 2332 ft 146 kts 136°
2026-05-05 19:36 2.71252 103.58344 2333 ft 147 kts 136°
2026-05-05 19:36 2.70502 103.59051 2331 ft 149 kts 136°
2026-05-05 19:37 2.69744 103.59766 2330 ft 148 kts 136°
2026-05-05 19:37 2.69000 103.60468 2326 ft 147 kts 136°
2026-05-05 19:37 2.68265 103.61161 2327 ft 146 kts 136°
2026-05-05 19:37 2.67535 103.61848 2327 ft 139 kts 136°
2026-05-05 19:38 2.66848 103.62496 2321 ft 135 kts 136°
2026-05-05 19:38 2.66172 103.63134 2319 ft 133 kts 136°
2026-05-05 19:38 2.65726 103.63554 2324 ft 130 kts 136°
2026-05-05 19:38 2.65077 103.64166 2329 ft 128 kts 136°
2026-05-05 19:39 2.64432 103.64774 2329 ft 127 kts 136°
2026-05-05 19:39 2.63780 103.65389 2325 ft 128 kts 136°
2026-05-05 19:39 2.63127 103.66006 2297 ft 131 kts 136°
2026-05-05 19:39 2.62469 103.66625 2201 ft 130 kts 136°
2026-05-05 19:40 2.61813 103.67243 2108 ft 130 kts 136°
2026-05-05 19:40 2.61154 103.67866 2011 ft 131 kts 136°
2026-05-05 19:40 2.60489 103.68492 1918 ft 131 kts 136°
2026-05-05 19:40 2.59836 103.69108 1823 ft 131 kts 136°
2026-05-05 19:41 2.59174 103.69731 1723 ft 130 kts 136°
2026-05-05 19:41 2.58520 103.70348 1625 ft 129 kts 136°
2026-05-05 19:41 2.57871 103.70960 1530 ft 127 kts 136°
2026-05-05 19:41 2.57222 103.71572 1423 ft 127 kts 136°
2026-05-05 19:42 2.56589 103.72169 1347 ft 125 kts 136°
2026-05-05 19:42 2.55976 103.72747 1343 ft 118 kts 136°
2026-05-05 19:42 2.55386 103.73302 1334 ft 115 kts 136°
2026-05-05 19:42 2.54799 103.73856 1337 ft 116 kts 136°
2026-05-05 19:43 2.54207 103.74414 1340 ft 118 kts 136°
2026-05-05 19:43 2.53605 103.74982 1348 ft 121 kts 136°
2026-05-05 19:43 2.52987 103.75565 1352 ft 123 kts 136°
2026-05-05 19:43 2.52351 103.76164 1358 ft 125 kts 136°
2026-05-05 19:44 2.51721 103.76758 1357 ft 126 kts 136°
2026-05-05 19:44 2.51084 103.77359 1355 ft 127 kts 136°
2026-05-05 19:44 2.50437 103.77968 1358 ft 127 kts 136°
2026-05-05 19:44 2.49795 103.78574 1357 ft 128 kts 136°
2026-05-05 19:45 2.49143 103.79188 1362 ft 128 kts 136°
2026-05-05 19:45 2.48496 103.79798 1357 ft 128 kts 136°
2026-05-05 19:45 2.47853 103.80405 1359 ft 128 kts 137°
2026-05-05 19:45 2.47206 103.81014 1405 ft 125 kts 137°
2026-05-05 19:46 2.46589 103.81594 1482 ft 124 kts 137°
2026-05-05 19:46 2.46018 103.82142 1431 ft 103 kts 130°
2026-05-05 19:46 2.45520 103.82654 1248 ft 100 kts 144°
2026-05-05 19:46 2.44968 103.83069 1180 ft 96 kts 142°
2026-05-05 19:47 2.44446 103.83490 1173 ft 94 kts 143°
2026-05-05 19:47 2.43945 103.83884 1197 ft 92 kts 142°
2026-05-05 19:47 2.43429 103.84291 1094 ft 96 kts 144°
2026-05-05 19:47 2.42902 103.84674 1093 ft 92 kts 144°
2026-05-05 19:48 2.42397 103.85062 1042 ft 93 kts 142°
2026-05-05 19:48 2.41890 103.85443 963 ft 85 kts 144°
2026-05-05 19:48 2.41422 103.85790 901 ft 85 kts 143°
2026-05-05 19:48 2.40939 103.86133 719 ft 86 kts 145°
2026-05-05 19:49 2.40449 103.86483 466 ft 87 kts 147°
2026-05-05 19:49 2.39959 103.86807 279 ft 80 kts 147°
2026-05-05 19:49 2.39500 103.87101 197 ft 76 kts 148°
2026-05-05 19:49 2.39047 103.87376 27 ft 76 kts 147°
2026-05-05 19:50 2.38740 103.87564 23 ft 16 kts 148°
2026-05-05 19:50 2.38669 103.87605 22 ft 7 kts 190°
2026-05-05 19:50 2.38650 103.87576 22 ft 5 kts 291°
2026-05-05 19:50 2.38659 103.87568 23 ft 0 kts 28°
2026-05-05 19:51 2.38660 103.87569 23 ft 0 kts 60°